TimeCST,TemperatureF,Dew PointF,Humidity,Sea Level PressureIn,VisibilityMPH,Wind Direction,Wind SpeedMPH,Gust SpeedMPH,PrecipitationIn,Events,Conditions,WindDirDegrees,DateUTC
12:15 AM,21.2,10.4,63,30.43,10.0,South,12.7,-,0.00,,Clear,180,2014-01-08 06:15:00
12:35 AM,21.2,10.4,63,30.43,10.0,South,10.4,-,0.00,,Clear,190,2014-01-08 06:35:00
12:55 AM,21.2,10.4,63,30.44,10.0,South,11.5,-,0.00,,Clear,190,2014-01-08 06:55:00
1:15 AM,21.2,10.4,63,30.44,10.0,South,9.2,-,0.00,,Clear,190,2014-01-08 07:15:00
1:35 AM,21.2,10.4,63,30.44,10.0,South,10.4,-,0.00,,Clear,190,2014-01-08 07:35:00
1:55 AM,21.2,12.2,68,30.44,9.0,South,10.4,-,0.00,,Clear,180,2014-01-08 07:55:00
2:15 AM,21.2,12.2,68,30.45,8.0,South,8.1,-,0.00,,Clear,190,2014-01-08 08:15:00
2:35 AM,19.4,12.2,74,30.45,10.0,South,8.1,-,0.00,,Clear,180,2014-01-08 08:35:00
2:55 AM,19.4,12.2,74,30.45,10.0,South,8.1,-,0.00,,Clear,190,2014-01-08 08:55:00
3:15 AM,19.4,12.2,74,30.45,10.0,South,6.9,-,0.00,,Clear,180,2014-01-08 09:15:00
3:35 AM,19.4,10.4,68,30.46,10.0,South,5.8,-,0.00,,Clear,170,2014-01-08 09:35:00
3:55 AM,19.4,12.2,74,30.45,9.0,South,6.9,-,0.00,,Clear,170,2014-01-08 09:55:00
4:15 AM,19.4,12.2,74,30.45,9.0,South,8.1,-,0.00,,Clear,170,2014-01-08 10:15:00
4:35 AM,21.2,12.2,68,30.44,9.0,South,8.1,-,0.00,,Clear,170,2014-01-08 10:35:00
4:55 AM,19.4,12.2,74,30.44,10.0,South,6.9,-,0.00,,Clear,170,2014-01-08 10:55:00
5:15 AM,19.4,12.2,74,30.45,10.0,South,4.6,-,0.00,,Clear,180,2014-01-08 11:15:00
5:35 AM,19.4,12.2,74,30.46,10.0,Calm,Calm,-,0.00,,Clear,0,2014-01-08 11:35:00
6:50 AM,19.4,12.2,74,30.46,10.0,Calm,Calm,-,N/A,,Mostly Cloudy,0,2014-01-08 12:50:00
7:50 AM,21.2,12.2,68,30.48,10.0,SSE,4.6,-,N/A,,Mostly Cloudy,150,2014-01-08 13:50:00
9:50 AM,30.2,14.0,51,30.50,10.0,SSE,5.8,-,N/A,,Mostly Cloudy,160,2014-01-08 15:50:00
10:50 AM,35.6,17.6,48,30.47,10.0,SSE,5.8,-,N/A,,Mostly Cloudy,150,2014-01-08 16:50:00
11:50 AM,37.4,15.8,41,30.43,10.0,SSE,5.8,-,N/A,,Mostly Cloudy,160,2014-01-08 17:50:00
12:50 PM,39.2,14.0,36,30.38,10.0,SE,9.2,-,N/A,,Mostly Cloudy,140,2014-01-08 18:50:00
1:50 PM,39.2,14.0,36,30.37,10.0,SSE,9.2,-,N/A,,Mostly Cloudy,160,2014-01-08 19:50:00
2:50 PM,39.2,15.8,39,30.36,10.0,SSE,4.6,-,N/A,,Mostly Cloudy,150,2014-01-08 20:50:00
3:50 PM,39.2,17.6,42,30.37,10.0,SE,4.6,-,N/A,,Mostly Cloudy,130,2014-01-08 21:50:00
4:50 PM,37.4,17.6,45,30.37,10.0,Calm,Calm,-,N/A,,Overcast,0,2014-01-08 22:50:00
5:50 PM,37.4,17.6,45,30.37,10.0,Calm,Calm,-,N/A,,Overcast,0,2014-01-08 23:50:00
7:50 PM,35.6,17.6,48,30.40,10.0,Calm,Calm,-,N/A,,Overcast,0,2014-01-09 01:50:00
7:55 PM,35.6,17.6,48,30.39,10.0,Calm,Calm,-,0.00,,Mostly Cloudy,0,2014-01-09 01:55:00
8:15 PM,35.6,17.6,48,30.40,10.0,Calm,Calm,-,0.00,,Mostly Cloudy,0,2014-01-09 02:15:00
8:35 PM,35.6,19.4,52,30.40,10.0,Calm,Calm,-,0.00,,Overcast,0,2014-01-09 02:35:00
8:55 PM,35.6,21.2,56,30.39,9.0,Calm,Calm,-,0.00,,Scattered Clouds,0,2014-01-09 02:55:00
9:15 PM,33.8,21.2,60,30.40,10.0,Calm,Calm,-,0.00,,Partly Cloudy,0,2014-01-09 03:15:00
9:35 PM,33.8,21.2,60,30.40,9.0,Calm,Calm,-,0.00,,Scattered Clouds,0,2014-01-09 03:35:00
9:55 PM,33.8,21.2,60,30.40,10.0,ESE,4.6,-,0.00,,Mostly Cloudy,110,2014-01-09 03:55:00
10:15 PM,33.8,23.0,65,30.40,10.0,East,5.8,-,0.00,,Mostly Cloudy,100,2014-01-09 04:15:00
10:35 PM,33.8,23.0,65,30.41,10.0,East,3.5,-,0.00,,Mostly Cloudy,100,2014-01-09 04:35:00
10:55 PM,33.8,23.0,65,30.41,10.0,Calm,Calm,-,0.00,,Scattered Clouds,0,2014-01-09 04:55:00
11:15 PM,33.8,23.0,65,30.41,10.0,Calm,Calm,-,0.00,,Scattered Clouds,0,2014-01-09 05:15:00
11:35 PM,33.8,24.8,70,30.40,10.0,Calm,Calm,-,0.00,,Mostly Cloudy,0,2014-01-09 05:35:00
11:55 PM,33.8,26.6,75,30.41,10.0,Calm,Calm,-,0.01,,Mostly Cloudy,0,2014-01-09 05:55:00